"Pseudo-MPEC" for P11ZAuT
Created 2024 Oct 2 10:22:09 UT using Find_Orb
Click here for an explanation of pseudo-MPECs
Astrometry: P11ZAuT* C2024 09 29.47739002 43 53.200-31 22 16.19 ~9TDM 21.01wXNEOCPF51 P11ZAuT C2024 09 29.48717202 43 51.192-31 21 11.30 ~9TDM 20.99wXNEOCPF51 P11ZAuT C2024 09 29.49695502 43 49.196-31 20 06.48 ~9TDM 20.89wXNEOCPF51 P11ZAuT C2024 09 29.50673402 43 47.173-31 19 01.41 ~9TDM 20.92wXNEOCPF51 P11ZAuT C2024 09 29.56777302 43 34.682-31 12 11.75 ~9TM7 20.96GVNEOCPF52 P11ZAuT C2024 09 29.56975602 43 34.276-31 11 58.29 ~9TM7 21.08GVNEOCPF52 P11ZAuT C2024 09 29.57107502 43 34.023-31 11 49.45 ~9TM7 20.69GVNEOCPF52 P11ZAuT KC2024 09 30.35757102 41 46.954-29 50 49.20 ~9U9M VNEOCPI52 P11ZAuT KC2024 09 30.36021102 41 46.525-29 50 33.97 ~9U9M 21.50GVNEOCPI52 P11ZAuT KC2024 09 30.36285002 41 46.050-29 50 18.38 ~9U9M 21.04GVNEOCPI52 P11ZAuT KC2024 09 30.36547602 41 45.625-29 50 03.66 ~9U9M 21.91GVNEOCPI52 P11ZAuT 3C2024 09 30.60695802 41 09.340-29 26 56.48 ~9UF7 21.03GVNEOCPT14 P11ZAuT 3C2024 09 30.60793902 41 09.186-29 26 50.79 ~9UF7 21.02GVNEOCPT14 P11ZAuT 3C2024 09 30.60952802 41 08.920-29 26 41.78 ~9UF7 21.51GVNEOCPT14 P11ZAuT |C2024 10 02.27779602 38 07.250-27 09 51.30 ~A297 21.3 GVNEOCP807 P11ZAuT |C2024 10 02.28350002 38 06.480-27 09 26.50 ~A297 21.2 GVNEOCP807 P11ZAuT |C2024 10 02.28921002 38 05.720-27 09 01.80 ~A297 21.3 GVNEOCP807 Station data: (807) Cerro Tololo Observatory, La Serena (S30.169133 W70.805900) Chile. Observer R. Holmes. 0.61-m f/6.5 astrograph + CCD. (F51) Pan-STARRS 1, Haleakala (N20.707234 W156.255910) US/Hawaii. Observers J. Bulger, T. Lowe, A. Schultz, M. Willman. Measurers K. Chambers, S. Chastel, T. de Boer, L. Denneau, J. Fairlamb, H. Flewelling, M. Huber, C.-C. Lin, E. Magnier, Y. Ramanjooloo, R. Wainscoat, R. Weryk. 1.8-m Ritchey-Chrétien + CCD. (F52) Pan-STARRS 2, Haleakala (N20.707382 W156.255910) US/Hawaii. Observers J. Bulger, T. Dukes, T. Lowe, A. Schultz, M. Willman. Measurers K. Chambers, S. Chastel, T. de Boer, L. Denneau, J. Fairlamb, H. Flewelling, M. Huber, C.-C. Lin, E. Magnier, Y. Ramanjooloo, R. Wainscoat, R. Weryk. 1.8-m Ritchey-Chrétien + CCD. (I52) Steward Observatory, Mt. Lemmon Station (N32.442570 W110.788920) US/Arizona. Observers T. A. Pruyne, B. M. Africano, E. J. Christensen, G. A. Farneth, D. C. Fuls, A. R. Gibbs, A. D. Grauer, H. Gröller, J. A. Johnson, R. A. Kowalski, S. M. Larson, G. J. Leonard, D. Rankin, R. L. Seaman, F. C. Shelly, K. W. Wierzchoś. 1.0-m prime focus + CCD. (T14) Mauna Kea-UH/Tholen NEO Follow-Up (CFHT) (N19.825252 W155.468876) US/Hawaii. Observer R. Weryk. 3.6-m Canada-France-Hawaii Telescope. Orbital elements: P11ZAuT Perihelion 2024 Aug 23.04653 +/- 0.0141 TT = 1:06:59 (JD 2460545.54653) Epoch 2024 Oct 2.0 TT = JDT 2460585.5 Earth MOID: 0.0230 AutoNEOCP M 9.80848239 +/- 0.06 (J2000 ecliptic) n 0.24549761 +/- 0.00152 Peri. 149.99351 +/- 0.0055 a 2.52602626 +/- 0.0104 Node 168.71620 +/- 0.007 e 0.6381989 +/- 0.00156 Incl. 9.02511 +/- 0.013 P 4.01473 H 24.94 G 0.15 U 8.4 q 0.91391889 +/- 0.000155 Q 4.13813364 +/- 0.021 From 17 observations 2024 Sept. 29-Oct. 2; mean residual 0".22
Residuals in arcseconds: 240929 F51 .14- .28+ 240929 F52 .17+ .10+ 240930 T14 .03+ .04+ 240929 F51 .09- .11+ 240930 I52 .56- .25- 240930 T14 .02- .03- 240929 F51 .15+ .23- 240930 I52 .17- .13- 241002 807 .25+ .10- 240929 F51 .06+ .38- 240930 I52 .38- .35+ 241002 807 .30+ .16+ 240929 F52 .08+ .03+ 240930 I52 .03+ .03+ 241002 807 .47+ .26+ 240929 F52 .01+ .14+ 240930 T14 .08- .05- Ephemerides (geocentric): Date (UTC) HH RA Dec delta r elong mag " sig PA ---- -------- ------------ ------------ ------ ------ ----- --- -------- 2024 10 02 10 02 37 53.719 -27 00 05.01 .09871 1.0754 137.2 21.6 .175 82 2024 10 02 11 02 37 49.685 -26 57 09.97 .09903 1.0756 137.3 21.6 .176 83 2024 10 02 12 02 37 45.671 -26 54 15.95 .09934 1.0759 137.3 21.6 .177 84 2024 10 02 13 02 37 41.679 -26 51 22.92 .09966 1.0762 137.4 21.6 .178 85 2024 10 02 14 02 37 37.706 -26 48 30.89 .09998 1.0765 137.4 21.6 .179 86 2024 10 02 15 02 37 33.754 -26 45 39.85 .10029 1.0768 137.5 21.7 .180 87 2024 10 02 16 02 37 29.822 -26 42 49.78 .10061 1.0771 137.5 21.7 .181 88 2024 10 02 17 02 37 25.910 -26 40 00.67 .10093 1.0774 137.6 21.7 .182 89 2024 10 02 18 02 37 22.018 -26 37 12.53 .10124 1.0777 137.7 21.7 .183 89 2024 10 02 19 02 37 18.145 -26 34 25.33 .10156 1.0780 137.7 21.7 .184 90 2024 10 02 20 02 37 14.291 -26 31 39.07 .10188 1.0783 137.8 21.7 .185 91 2024 10 02 21 02 37 10.456 -26 28 53.74 .10220 1.0786 137.8 21.7 .186 92 2024 10 02 22 02 37 06.640 -26 26 09.34 .10251 1.0789 137.9 21.7 .187 93 2024 10 02 23 02 37 02.843 -26 23 25.84 .10283 1.0792 137.9 21.7 .188 94 2024 10 03 00 02 36 59.064 -26 20 43.26 .10315 1.0795 138.0 21.7 .189 94 2024 10 03 01 02 36 55.303 -26 18 01.57 .10347 1.0798 138.0 21.7 .190 95 2024 10 03 02 02 36 51.560 -26 15 20.77 .10378 1.0801 138.1 21.7 .191 96 2024 10 03 03 02 36 47.835 -26 12 40.85 .10410 1.0804 138.1 21.7 .193 97 2024 10 03 04 02 36 44.128 -26 10 01.80 .10442 1.0807 138.2 21.7 .194 98 2024 10 03 05 02 36 40.438 -26 07 23.62 .10474 1.0810 138.2 21.7 .195 98 2024 10 03 06 02 36 36.765 -26 04 46.30 .10506 1.0813 138.3 21.7 .196 99 2024 10 03 07 02 36 33.110 -26 02 09.82 .10537 1.0816 138.4 21.7 .197 100 2024 10 03 08 02 36 29.471 -25 59 34.19 .10569 1.0819 138.4 21.7 .198 100 2024 10 03 09 02 36 25.849 -25 56 59.39 .10601 1.0822 138.5 21.8 .199 101 2024 10 03 10 02 36 22.243 -25 54 25.42 .10633 1.0825 138.5 21.8 .201 102 2024 10 03 11 02 36 18.654 -25 51 52.27 .10665 1.0828 138.6 21.8 .202 103 2024 10 03 12 02 36 15.081 -25 49 19.93 .10697 1.0831 138.6 21.8 .203 103 2024 10 03 13 02 36 11.525 -25 46 48.40 .10729 1.0834 138.7 21.8 .204 104 2024 10 03 14 02 36 07.984 -25 44 17.66 .10760 1.0837 138.7 21.8 .205 105 2024 10 03 15 02 36 04.458 -25 41 47.72 .10792 1.0840 138.8 21.8 .206 105 2024 10 03 16 02 36 00.949 -25 39 18.56 .10824 1.0843 138.8 21.8 .208 106 2024 10 03 17 02 35 57.454 -25 36 50.17 .10856 1.0846 138.9 21.8 .209 106 2024 10 03 18 02 35 53.975 -25 34 22.56 .10888 1.0849 138.9 21.8 .210 107 2024 10 03 19 02 35 50.511 -25 31 55.71 .10920 1.0852 139.0 21.8 .211 108 2024 10 03 20 02 35 47.062 -25 29 29.61 .10952 1.0855 139.0 21.8 .212 108 2024 10 03 21 02 35 43.628 -25 27 04.27 .10984 1.0858 139.1 21.8 .213 109 2024 10 03 22 02 35 40.208 -25 24 39.67 .11016 1.0861 139.1 21.8 .214 109 2024 10 03 23 02 35 36.803 -25 22 15.81 .11048 1.0864 139.2 21.8 .215 110 2024 10 04 00 02 35 33.412 -25 19 52.68 .11080 1.0867 139.2 21.8 .216 111 2024 10 04 01 02 35 30.036 -25 17 30.27 .11112 1.0870 139.3 21.8 .218 111 2024 10 04 02 02 35 26.673 -25 15 08.58 .11144 1.0873 139.3 21.8 .219 112 2024 10 04 03 02 35 23.325 -25 12 47.61 .11176 1.0876 139.4 21.9 .220 112 2024 10 04 04 02 35 19.990 -25 10 27.34 .11208 1.0879 139.4 21.9 .221 113 2024 10 04 05 02 35 16.669 -25 08 07.77 .11240 1.0882 139.5 21.9 .222 113 2024 10 04 06 02 35 13.361 -25 05 48.89 .11272 1.0885 139.5 21.9 .223 114 2024 10 04 07 02 35 10.067 -25 03 30.70 .11304 1.0888 139.6 21.9 .224 114 2024 10 04 08 02 35 06.786 -25 01 13.20 .11337 1.0891 139.6 21.9 .225 115 2024 10 04 09 02 35 03.518 -24 58 56.37 .11369 1.0894 139.7 21.9 .226 115